sat.trackr.live / text

‹ back to catalog

STARLINK-4690

NORAD 53604 · 2022-104S

PAYLOAD ACTIVE UNKNOWN

§ Identity

Operator
Country
US
Launch date
2022-08-28
Launch site
AFETR
Launch vehicle
Mass (kg)
RCS (m²)

Purposes: comms

External: N2YO · Heavens-Above · Gunter

§ Orbital elements

Epoch: 2026-05-25T00:59:56.736096Z

Period
95.44 min
Inclination
53.2149°
Eccentricity
0.0001298
Mean motion
15.08840394 rev/d
Perigee alt
538.8 km
Apogee alt
540.6 km
Semi-major
6,917.9 km
B*
2.7436e-5
RAAN
256.2212°
Arg perigee
82.1247°
Mean anomaly
277.9892°
Rev number
20,721

§ Raw data

STARLINK-46901 53604U 22104S   26145.04162889  .00000149  00000+0  27436-4 0  99922 53604  53.2149 256.2212 0001298  82.1247 277.9892 15.08840394207216

JSON: /api/v1/satellites/53604 · /tle

For live sub-satellite position, see the globe view (requires WebGL).

§ Visibility from observer

Set your observer location to see the next 7 days of passes ≥ 10°. The values pass through the URL so the page stays shareable.

No JS? Fill the form by hand. The geolocation button needs JavaScript.